Weather in Vishnevka

Russia / Volgograd Oblast     49°25′37″N   46°46′18″E
temp.,
°C
wind,
m/s
gust,
m/s
humid.,
%
clouds,
%
prec.,
mm/h
press.,
hPa
HPBL,
m
27 july, tue
tue2700:00+22nne48360 0.0 1020159
03:00+20ne46390 0.0 1020109
06:00+21ne57390 0.0 1021238
09:00+27ne442829 0.0 10201307
12:00+29nne44216 0.0 10192463
15:00+30nne6620100 0.0 10172871
18:00+30nne4521100 0.0 10173157
21:00+25nne4934100 0.0 1017220
28 july, wed
wed2800:00+23nne2340100 0.0 101724
03:00+21n33452 0.0 101742
06:00+23n35463 0.0 1017184
09:00+28n45322 0.0 10161492
12:00+31n552693 0.0 10153361
15:00+32n552295 0.0 10143487
18:00+31nnw552228 0.0 10143066
21:00+26nne463349 0.0 1015103
29 july, thu
thu2900:00+24ene33360 0.0 101537
03:00+23se33365 0.0 101534
06:00+25s3534100 0.0 1015150
09:00+31s4423100 0.0 10141320
12:00+33sw4421100 0.0 10123285
15:00+34w6619100 0.0 10113466
18:00+33wsw572136 0.0 10101766
21:00+30sw4925100 0.0 1010244
30 july, fri
fri3000:00+28w333597 0.0 101069
03:00+27w3342100 0.0 101062
06:00+27wsw243944 0.0 1011154
09:00+33w56295 0.0 10111545
12:00+35w6724100 0.0 10103587
15:00+35wnw472318 0.0 10093433
18:00+35wnw452087 0.0 10083342
21:00+29ene483956 0.0 1009193
31 july, sat
sat3100:00+26nne795146 0.0 1010287
03:00+23ene596247 0.0 1009205
06:00+26sse12515 0.0 1009107
09:00+32nw233452 0.0 1010745
12:00+34wsw352972 0.0 10091664
15:00+33wsw342942 0.0 1009319
18:00+36sw462210 0.1 10082609
21:00+27ne5753100 0.1 1010158